This is the latest recevied weather packets stored in our database for station/object K2CAT. If no packets are shown the sender has not sent any weather packets the latest 10 day(s).
| Time | Temp. | Humidity | Pressure | Rain* | Wind** | Luminosity | Snow |
|---|---|---|---|---|---|---|---|
| 1777201875 | 6.11° C | 99% | 1019.4 hPa | 0 mm | - | 43 W/m² | - |
| 1777201572 | 6.11° C | 99% | 1019.4 hPa | 0 mm | - | 40 W/m² | - |
| 1777201268 | 6.11° C | 99% | 1019.4 hPa | 0 mm | - | 34 W/m² | - |
| 1777200963 | 6.11° C | 99% | 1019.4 hPa | 0 mm | - | 30 W/m² | - |
| 1777200660 | 6.11° C | 99% | 1019.2 hPa | 0 mm | - | 30 W/m² | - |
| 1777200359 | 6.11° C | 99% | 1019.2 hPa | 0 mm | - | 25 W/m² | - |
| 1777200056 | 6.11° C | 99% | 1019.3 hPa | 0 mm | - | 19 W/m² | - |
| 1777199751 | 5.56° C | 99% | 1019.1 hPa | 0 mm | - | 16 W/m² | - |
| 1777199448 | 5.56° C | 99% | 1019.1 hPa | 0 mm | - | 11 W/m² | - |
| 1777199143 | 5.56° C | 99% | 1019.1 hPa | 0 mm | - | 8 W/m² | - |
| 1777198843 | 5.56° C | 99% | 1018.8 hPa | 0 mm | - | 6 W/m² | - |
| 1777198540 | 5.56° C | 99% | 1018.9 hPa | 0 mm | - | 6 W/m² | - |
| 1777198238 | 5.56° C | 99% | 1018.7 hPa | 0 mm | - | 4 W/m² | - |
| 1777197937 | 5.56° C | 99% | 1018.8 hPa | 0 mm | - | 3 W/m² | - |
| 1777197633 | 5.56° C | 99% | 1018.6 hPa | 0 mm | - | 2 W/m² | - |
| 1777197329 | 5.56° C | 99% | 1018.6 hPa | 0 mm | - | 1 W/m² | - |
| 1777197026 | 5.56° C | 99% | 1018.7 hPa | 0 mm | - | 0 W/m² | - |
| 1777196722 | 5.56° C | 99% | 1018.6 hPa | 0 mm | - | 0 W/m² | - |
| 1777196419 | 5.56° C | 99% | 1018.7 hPa | 0 mm | - | 0 W/m² | - |
| 1777196116 | 5.56° C | 99% | 1018.9 hPa | 0 mm | - | 0 W/m² | - |
| 1777195812 | 5.56° C | 99% | 1018.7 hPa | 0 mm | - | 0 W/m² | - |
| 1777195507 | 5.56° C | 99% | 1018.7 hPa | 0 mm | - | 0 W/m² | - |
| 1777195203 | 5.56° C | 99% | 1018.8 hPa | 0 mm | - | 0 W/m² | - |
| 1777194900 | 5.56° C | 99% | 1018.6 hPa | 0 mm | - | 0 W/m² | - |
| 1777194600 | 5.56° C | 99% | 1018.7 hPa | 0 mm | - | 0 W/m² | - |
* Rain latest hour (hover to see other rain measurements)
** Current wind speed in m/s (hover to see current wind gust speed)